{"data":{"norad_id":62770,"intl_designator":"2025-015N","name":"STARLINK-33594","alt_names":[],"object_type":"PAYLOAD","status":"ACTIVE","operator":null,"country":"US","launch_date":"2025-01-21","launch_site_code":"AFWTR","launch_vehicle":null,"mission":null,"orbit_class":"UNKNOWN","rcs_meters":null,"size_class":null,"mass_kg":null,"dimensions":null,"purposes":["comms"],"wikipedia_slug":null,"has_3d_model":false,"image_url":null,"decayed_at":null,"tle_current":{"epoch":"2026-09-21T21:05:10.682304Z","epoch_age_seconds":52251,"freshness":"FRESH","line1":"1 62770U 25015N   26264.87859586  .00008777  00000+0  29419-3 0  9997","line2":"2 62770  53.1598 129.3991 0001391  80.7001 279.4158 15.31709063 94542","mean_motion":15.31709063,"eccentricity":0.0001391,"inclination_deg":53.1598,"raan_deg":129.3991,"arg_perigee_deg":80.7001,"mean_anomaly_deg":279.4158,"bstar":0.00029419,"rev_number":9454,"period_min":94.012631692576,"perigee_km":469.76030399538,"apogee_km":471.66565405954,"semimajor_km":6848.8499790275,"source":"CELESTRAK","updated_at":"2026-09-22T09:00:49.662878Z"}}}